Location: Unspecified
(43.4680°N, 87.1740°E)
Time: 20:37:17
(UTC+00:00)

Nadezhda 4 Rocket - Pass Details

Date: 17 April 2021
Orbit: 950 x 992 km, 82.9° (Epoch: 12 May)

Event Time Altitude Azimuth Distance (km) Brightness Sun altitude
Rises 13:47:25 0° 352° (N) 3,712 7.5 -9.5°
Reaches altitude 10° 13:49:58 10° 352° (N) 2,756 6.8 -9.9°
Maximum altitude 13:56:18 90° 84° (E) 988 4.0 -10.9°
Drops below altitude 10° 14:02:33 10° 174° (S) 2,712 6.0 -11.9°
Sets 14:05:01 0° 174° (S) 3,648 6.7 -12.3°
